KFY1069 SSTE-SBLJ

Flight info

Callsign KFY1069
Flight time 0h 55m
Altitude 8500
Route DCT 2902S04957W 2750S05028W
Aircraft B58T/L-SDFGRY/C

Departure

Time 2026-05-07 21:26
Airport Torres Airport (SSTE)

Arrival

Time 2026-05-07 22:21
Airport Lages Airport (SBLJ)
Time Latitude Longitude Altitude Speed Heading
2026-05-07 21:08 -29.41351 -49.80538 33 ft 0 kts 40°
2026-05-07 21:17 -29.41350 -49.80537 38 ft 0 kts 40°
2026-05-07 21:18 -29.41358 -49.80545 36 ft 8 kts 300°
2026-05-07 21:18 -29.41343 -49.80572 36 ft 6 kts 251°
2026-05-07 21:18 -29.41313 -49.80626 35 ft 11 kts 309°
2026-05-07 21:18 -29.41269 -49.80689 36 ft 0 kts 309°
2026-05-07 21:19 -29.41254 -49.80711 36 ft 8 kts 309°
2026-05-07 21:19 -29.41249 -49.80782 35 ft 12 kts 219°
2026-05-07 21:19 -29.41317 -49.80846 35 ft 14 kts 219°
2026-05-07 21:20 -29.41405 -49.80930 32 ft 19 kts 221°
2026-05-07 21:20 -29.41507 -49.81030 33 ft 19 kts 209°
2026-05-07 21:20 -29.41614 -49.81113 33 ft 18 kts 218°
2026-05-07 21:20 -29.41713 -49.81203 35 ft 17 kts 219°
2026-05-07 21:21 -29.41799 -49.81284 37 ft 15 kts 217°
2026-05-07 21:21 -29.41883 -49.81356 37 ft 16 kts 218°
2026-05-07 21:21 -29.41969 -49.81435 38 ft 15 kts 219°
2026-05-07 21:21 -29.41997 -49.81458 38 ft 6 kts 58°
2026-05-07 21:22 -29.41991 -49.81452 38 ft 0 kts 36°
2026-05-07 21:22 -29.41992 -49.81452 38 ft 0 kts 36°
2026-05-07 21:22 -29.41991 -49.81452 38 ft 0 kts 36°
2026-05-07 21:23 -29.41992 -49.81452 38 ft 0 kts 36°
2026-05-07 21:23 -29.41991 -49.81452 38 ft 0 kts 36°
2026-05-07 21:24 -29.41992 -49.81452 38 ft 0 kts 36°
2026-05-07 21:25 -29.41991 -49.81452 38 ft 0 kts 36°
2026-05-07 21:25 -29.41992 -49.81452 38 ft 0 kts 36°
2026-05-07 21:25 -29.41875 -49.81349 37 ft 60 kts 39°
2026-05-07 21:26 -29.41384 -49.80905 139 ft 107 kts 37°
2026-05-07 21:26 -29.40764 -49.80395 545 ft 116 kts 37°
2026-05-07 21:26 -29.40091 -49.79843 820 ft 122 kts 35°
2026-05-07 21:26 -29.39404 -49.79247 1077 ft 126 kts 35°
2026-05-07 21:27 -29.38714 -49.78598 1337 ft 129 kts 35°
2026-05-07 21:27 -29.38000 -49.77955 1601 ft 132 kts 35°
2026-05-07 21:27 -29.37260 -49.77283 1845 ft 138 kts 35°
2026-05-07 21:27 -29.36498 -49.76584 2095 ft 142 kts 34°
2026-05-07 21:28 -29.35639 -49.76107 2337 ft 137 kts 358°
2026-05-07 21:28 -29.34691 -49.76276 2584 ft 139 kts 348°
2026-05-07 21:28 -29.33766 -49.76564 2824 ft 140 kts 338°
2026-05-07 21:28 -29.32864 -49.76995 3069 ft 138 kts 335°
2026-05-07 21:29 -29.32015 -49.77452 3303 ft 135 kts 334°
2026-05-07 21:29 -29.31177 -49.77929 3539 ft 133 kts 334°
2026-05-07 21:29 -29.30356 -49.78394 3781 ft 131 kts 334°
2026-05-07 21:29 -29.29541 -49.78860 4023 ft 130 kts 334°
2026-05-07 21:30 -29.28732 -49.79320 4267 ft 129 kts 334°
2026-05-07 21:30 -29.27938 -49.79797 4514 ft 129 kts 331°
2026-05-07 21:30 -29.27157 -49.80295 4755 ft 128 kts 331°
2026-05-07 21:30 -29.26377 -49.80790 4998 ft 128 kts 331°
2026-05-07 21:31 -29.25599 -49.81282 5232 ft 128 kts 331°
2026-05-07 21:31 -29.24820 -49.81772 5472 ft 128 kts 331°
2026-05-07 21:31 -29.24040 -49.82254 5716 ft 127 kts 331°
2026-05-07 21:31 -29.23263 -49.82732 5963 ft 127 kts 331°
2026-05-07 21:32 -29.22486 -49.83206 6207 ft 126 kts 331°
2026-05-07 21:32 -29.21710 -49.83677 6438 ft 126 kts 332°
2026-05-07 21:32 -29.20944 -49.84150 6675 ft 125 kts 331°
2026-05-07 21:32 -29.20183 -49.84620 6904 ft 124 kts 331°
2026-05-07 21:33 -29.19424 -49.85089 7138 ft 123 kts 331°
2026-05-07 21:33 -29.18665 -49.85560 7377 ft 125 kts 331°
2026-05-07 21:33 -29.17902 -49.86032 7619 ft 125 kts 331°
2026-05-07 21:33 -29.17136 -49.86505 7860 ft 125 kts 331°
2026-05-07 21:34 -29.16367 -49.86979 8104 ft 126 kts 331°
2026-05-07 21:34 -29.15597 -49.87453 8349 ft 126 kts 331°
2026-05-07 21:34 -29.14802 -49.87942 8441 ft 136 kts 331°
2026-05-07 21:34 -29.13945 -49.88468 8462 ft 143 kts 331°
2026-05-07 21:35 -29.13059 -49.89017 8453 ft 147 kts 332°
2026-05-07 21:35 -29.12155 -49.89582 8454 ft 150 kts 331°
2026-05-07 21:35 -29.11232 -49.90152 8457 ft 152 kts 331°
2026-05-07 21:35 -29.10299 -49.90728 8461 ft 153 kts 331°
2026-05-07 21:36 -29.09371 -49.91305 8463 ft 151 kts 331°
2026-05-07 21:36 -29.08469 -49.91865 8465 ft 143 kts 330°
2026-05-07 21:36 -29.07594 -49.92424 8447 ft 144 kts 330°
2026-05-07 21:36 -29.06722 -49.92984 8447 ft 141 kts 332°
2026-05-07 21:37 -29.05848 -49.93531 8431 ft 146 kts 332°
2026-05-07 21:37 -29.04987 -49.94081 8459 ft 146 kts 329°
2026-05-07 21:37 -29.04076 -49.94640 8450 ft 148 kts 338°
2026-05-07 21:37 -29.03151 -49.95035 8444 ft 130 kts 335°
2026-05-07 21:38 -29.02311 -49.95476 8469 ft 138 kts 338°
2026-05-07 21:38 -29.01376 -49.95835 8439 ft 134 kts 341°
2026-05-07 21:38 -29.00517 -49.96232 8470 ft 137 kts 335°
2026-05-07 21:38 -28.99598 -49.96633 8469 ft 145 kts 338°
2026-05-07 21:39 -28.98637 -49.97044 8491 ft 150 kts 337°
2026-05-07 21:39 -28.97656 -49.97471 8478 ft 152 kts 337°
2026-05-07 21:39 -28.96671 -49.97900 8474 ft 152 kts 337°
2026-05-07 21:39 -28.95684 -49.98330 8477 ft 152 kts 336°
2026-05-07 21:40 -28.94702 -49.98759 8480 ft 152 kts 336°
2026-05-07 21:40 -28.93708 -49.99191 8484 ft 153 kts 336°
2026-05-07 21:40 -28.92707 -49.99625 8476 ft 155 kts 336°
2026-05-07 21:40 -28.91702 -50.00062 8479 ft 155 kts 336°
2026-05-07 21:41 -28.90695 -50.00500 8476 ft 155 kts 336°
2026-05-07 21:41 -28.89686 -50.00939 8476 ft 155 kts 336°
2026-05-07 21:41 -28.88676 -50.01377 8478 ft 155 kts 336°
2026-05-07 21:41 -28.87671 -50.01813 8487 ft 153 kts 337°
2026-05-07 21:42 -28.86684 -50.02242 8483 ft 151 kts 337°
2026-05-07 21:42 -28.85705 -50.02668 8481 ft 149 kts 337°
2026-05-07 21:42 -28.84745 -50.03080 8491 ft 145 kts 337°
2026-05-07 21:42 -28.83801 -50.03500 8479 ft 144 kts 336°
2026-05-07 21:43 -28.82855 -50.03911 8481 ft 146 kts 338°
2026-05-07 21:43 -28.81905 -50.04323 8476 ft 146 kts 338°
2026-05-07 21:43 -28.80953 -50.04729 8487 ft 147 kts 337°
2026-05-07 21:43 -28.79998 -50.05131 8489 ft 144 kts 338°
2026-05-07 21:44 -28.79060 -50.05542 8491 ft 146 kts 336°
2026-05-07 21:44 -28.78134 -50.05967 8494 ft 142 kts 335°
2026-05-07 21:44 -28.77521 -50.06239 8495 ft 144 kts 338°
2026-05-07 21:44 -28.76265 -50.06760 8498 ft 145 kts 337°
2026-05-07 21:45 -28.75638 -50.07033 8499 ft 146 kts 337°
2026-05-07 21:45 -28.74692 -50.07446 8494 ft 145 kts 336°
2026-05-07 21:45 -28.73753 -50.07855 8496 ft 144 kts 337°
2026-05-07 21:45 -28.72813 -50.08252 8508 ft 144 kts 337°
2026-05-07 21:46 -28.71879 -50.08661 8509 ft 145 kts 336°
2026-05-07 21:46 -28.70933 -50.09076 8509 ft 146 kts 336°
2026-05-07 21:46 -28.69979 -50.09488 8509 ft 147 kts 337°
2026-05-07 21:46 -28.69022 -50.09901 8510 ft 148 kts 337°
2026-05-07 21:47 -28.68060 -50.10319 8510 ft 148 kts 337°
2026-05-07 21:47 -28.67095 -50.10736 8507 ft 149 kts 338°
2026-05-07 21:47 -28.66125 -50.11153 8507 ft 149 kts 338°
2026-05-07 21:47 -28.65153 -50.11574 8505 ft 150 kts 337°
2026-05-07 21:48 -28.64179 -50.11995 8522 ft 150 kts 338°
2026-05-07 21:48 -28.63206 -50.12416 8519 ft 150 kts 338°
2026-05-07 21:48 -28.62231 -50.12837 8521 ft 150 kts 338°
2026-05-07 21:48 -28.61258 -50.13258 8520 ft 150 kts 337°
2026-05-07 21:49 -28.60283 -50.13680 8516 ft 150 kts 338°
2026-05-07 21:49 -28.59307 -50.14101 8519 ft 150 kts 337°
2026-05-07 21:49 -28.58328 -50.14524 8520 ft 151 kts 337°
2026-05-07 21:49 -28.57346 -50.14947 8514 ft 151 kts 337°
2026-05-07 21:50 -28.56365 -50.15372 8525 ft 151 kts 337°
2026-05-07 21:50 -28.55380 -50.15796 8533 ft 152 kts 337°
2026-05-07 21:50 -28.54398 -50.16224 8520 ft 153 kts 338°
2026-05-07 21:50 -28.53391 -50.16663 8516 ft 153 kts 338°
2026-05-07 21:51 -28.52398 -50.17083 8520 ft 152 kts 338°
2026-05-07 21:51 -28.51406 -50.17506 8515 ft 152 kts 338°
2026-05-07 21:51 -28.50416 -50.17934 8520 ft 152 kts 337°
2026-05-07 21:51 -28.49426 -50.18365 8521 ft 152 kts 337°
2026-05-07 21:52 -28.48430 -50.18795 8517 ft 153 kts 338°
2026-05-07 21:52 -28.47449 -50.19216 8517 ft 152 kts 337°
2026-05-07 21:52 -28.46460 -50.19646 8524 ft 153 kts 338°
2026-05-07 21:52 -28.45468 -50.20071 8528 ft 152 kts 338°
2026-05-07 21:53 -28.44469 -50.20498 8521 ft 154 kts 337°
2026-05-07 21:53 -28.43471 -50.20932 8521 ft 153 kts 337°
2026-05-07 21:53 -28.42476 -50.21352 8523 ft 153 kts 338°
2026-05-07 21:53 -28.41482 -50.21782 8520 ft 152 kts 336°
2026-05-07 21:54 -28.40496 -50.22212 8535 ft 152 kts 337°
2026-05-07 21:54 -28.39510 -50.22635 8529 ft 151 kts 337°
2026-05-07 21:54 -28.38529 -50.23059 8526 ft 151 kts 336°
2026-05-07 21:54 -28.37552 -50.23479 8538 ft 150 kts 338°
2026-05-07 21:55 -28.36573 -50.23894 8533 ft 148 kts 337°
2026-05-07 21:55 -28.35600 -50.24314 8526 ft 149 kts 337°
2026-05-07 21:55 -28.34627 -50.24738 8529 ft 150 kts 337°
2026-05-07 21:55 -28.33643 -50.25157 8521 ft 151 kts 336°
2026-05-07 21:56 -28.32679 -50.25571 8550 ft 147 kts 337°
2026-05-07 21:56 -28.31718 -50.25984 8541 ft 148 kts 338°
2026-05-07 21:56 -28.30742 -50.26397 8523 ft 149 kts 336°
2026-05-07 21:56 -28.29800 -50.26822 8549 ft 146 kts 336°
2026-05-07 21:57 -28.28860 -50.27223 8532 ft 141 kts 338°
2026-05-07 21:57 -28.27939 -50.27599 8508 ft 141 kts 337°
2026-05-07 21:57 -28.27027 -50.27997 8530 ft 143 kts 337°
2026-05-07 21:57 -28.26141 -50.28373 8540 ft 135 kts 337°
2026-05-07 21:58 -28.25244 -50.28763 8539 ft 140 kts 338°
2026-05-07 21:58 -28.24331 -50.29151 8552 ft 141 kts 338°
2026-05-07 21:58 -28.23412 -50.29548 8549 ft 142 kts 338°
2026-05-07 21:58 -28.22479 -50.29948 8546 ft 144 kts 338°
2026-05-07 21:59 -28.21541 -50.30351 8547 ft 145 kts 337°
2026-05-07 21:59 -28.20598 -50.30756 8545 ft 146 kts 338°
2026-05-07 21:59 -28.19645 -50.31164 8546 ft 147 kts 338°
2026-05-07 21:59 -28.18689 -50.31573 8551 ft 147 kts 338°
2026-05-07 22:00 -28.17725 -50.31985 8545 ft 148 kts 337°
2026-05-07 22:00 -28.16763 -50.32398 8547 ft 148 kts 338°
2026-05-07 22:00 -28.15801 -50.32809 8551 ft 148 kts 338°
2026-05-07 22:00 -28.14840 -50.33219 8543 ft 146 kts 338°
2026-05-07 22:01 -28.13891 -50.33626 8533 ft 146 kts 338°
2026-05-07 22:01 -28.12945 -50.34034 8541 ft 147 kts 338°
2026-05-07 22:01 -28.11990 -50.34441 8542 ft 146 kts 338°
2026-05-07 22:01 -28.11034 -50.34849 8540 ft 147 kts 338°
2026-05-07 22:02 -28.10085 -50.35255 8540 ft 148 kts 338°
2026-05-07 22:02 -28.09134 -50.35672 8534 ft 146 kts 337°
2026-05-07 22:02 -28.08175 -50.36076 8534 ft 149 kts 338°
2026-05-07 22:02 -28.07202 -50.36486 8537 ft 150 kts 338°
2026-05-07 22:03 -28.06221 -50.36905 8535 ft 150 kts 338°
2026-05-07 22:03 -28.05244 -50.37325 8538 ft 150 kts 338°
2026-05-07 22:03 -28.04264 -50.37745 8543 ft 151 kts 338°
2026-05-07 22:03 -28.03276 -50.38165 8541 ft 152 kts 338°
2026-05-07 22:04 -28.02288 -50.38586 8547 ft 152 kts 338°
2026-05-07 22:04 -28.01296 -50.39010 8552 ft 153 kts 338°
2026-05-07 22:04 -28.00303 -50.39434 8551 ft 153 kts 338°
2026-05-07 22:04 -27.99308 -50.39859 8551 ft 153 kts 338°
2026-05-07 22:05 -27.98314 -50.40283 8507 ft 154 kts 338°
2026-05-07 22:05 -27.97294 -50.40719 8389 ft 159 kts 338°
2026-05-07 22:05 -27.96248 -50.41162 8273 ft 162 kts 338°
2026-05-07 22:05 -27.95191 -50.41614 8152 ft 163 kts 338°
2026-05-07 22:06 -27.94128 -50.42069 8035 ft 164 kts 338°
2026-05-07 22:06 -27.93068 -50.42524 7925 ft 163 kts 339°
2026-05-07 22:06 -27.92006 -50.42969 7811 ft 163 kts 338°
2026-05-07 22:06 -27.90947 -50.43423 7689 ft 163 kts 338°
2026-05-07 22:07 -27.89883 -50.43875 7567 ft 163 kts 338°
2026-05-07 22:07 -27.88822 -50.44328 7429 ft 164 kts 338°
2026-05-07 22:07 -27.87755 -50.44784 7307 ft 165 kts 338°
2026-05-07 22:07 -27.86680 -50.45241 7192 ft 165 kts 338°
2026-05-07 22:08 -27.85600 -50.45692 7077 ft 165 kts 341°
2026-05-07 22:08 -27.84453 -50.45761 6956 ft 169 kts
2026-05-07 22:08 -27.83362 -50.45196 6840 ft 180 kts 30°
2026-05-07 22:08 -27.82595 -50.44021 6724 ft 196 kts 58°
2026-05-07 22:09 -27.82183 -50.42543 6583 ft 195 kts 64°
2026-05-07 22:09 -27.81797 -50.41089 6554 ft 192 kts 63°
2026-05-07 22:09 -27.81407 -50.39678 6544 ft 189 kts 62°
2026-05-07 22:09 -27.81017 -50.38268 6551 ft 189 kts 62°
2026-05-07 22:10 -27.80621 -50.36846 6549 ft 191 kts 63°
2026-05-07 22:10 -27.80230 -50.35418 6546 ft 189 kts 63°
2026-05-07 22:10 -27.79842 -50.34003 6493 ft 189 kts 63°
2026-05-07 22:10 -27.79449 -50.32597 6380 ft 186 kts 62°
2026-05-07 22:11 -27.79069 -50.31220 6259 ft 183 kts 62°
2026-05-07 22:11 -27.78690 -50.29852 6132 ft 182 kts 63°
2026-05-07 22:11 -27.78321 -50.28514 5999 ft 174 kts 63°
2026-05-07 22:11 -27.77972 -50.27246 5863 ft 164 kts 62°
2026-05-07 22:12 -27.77639 -50.26041 5717 ft 157 kts 63°
2026-05-07 22:12 -27.77337 -50.24908 5592 ft 142 kts 62°
2026-05-07 22:12 -27.77041 -50.23879 5560 ft 133 kts 59°
2026-05-07 22:12 -27.76759 -50.22898 5557 ft 132 kts 61°
2026-05-07 22:13 -27.76653 -50.21847 5550 ft 146 kts 97°
2026-05-07 22:13 -27.77327 -50.20967 5557 ft 155 kts 147°
2026-05-07 22:13 -27.78262 -50.20366 5557 ft 155 kts 147°
2026-05-07 22:13 -27.79200 -50.19754 5558 ft 156 kts 148°
2026-05-07 22:14 -27.80151 -50.19136 5486 ft 160 kts 148°
2026-05-07 22:14 -27.81127 -50.18506 5428 ft 162 kts 147°
2026-05-07 22:14 -27.82108 -50.17889 5364 ft 161 kts 148°
2026-05-07 22:14 -27.83107 -50.17278 5267 ft 167 kts 148°
2026-05-07 22:15 -27.84125 -50.16671 5143 ft 163 kts 149°
2026-05-07 22:15 -27.85167 -50.16163 5017 ft 165 kts 172°
2026-05-07 22:15 -27.86220 -50.16481 4887 ft 154 kts 228°
2026-05-07 22:15 -27.86964 -50.17311 4783 ft 151 kts 235°
2026-05-07 22:16 -27.87686 -50.18189 4664 ft 151 kts 242°
2026-05-07 22:16 -27.88047 -50.19210 4547 ft 125 kts 276°
2026-05-07 22:16 -27.87910 -50.20097 4558 ft 113 kts 298°
2026-05-07 22:16 -27.87682 -50.20936 4549 ft 106 kts 298°
2026-05-07 22:17 -27.87423 -50.21606 4544 ft 81 kts 326°
2026-05-07 22:17 -27.86998 -50.22010 4544 ft 82 kts 327°
2026-05-07 22:17 -27.86550 -50.22400 4512 ft 80 kts 331°
2026-05-07 22:17 -27.86087 -50.22757 4471 ft 83 kts 335°
2026-05-07 22:18 -27.85560 -50.23046 4432 ft 87 kts 337°
2026-05-07 22:18 -27.84488 -50.23704 4348 ft 88 kts 333°
2026-05-07 22:18 -27.83955 -50.24064 4297 ft 89 kts 332°
2026-05-07 22:19 -27.83431 -50.24419 4247 ft 89 kts 332°
2026-05-07 22:19 -27.82913 -50.24786 4144 ft 89 kts 331°
2026-05-07 22:19 -27.82382 -50.25180 4047 ft 93 kts 331°
2026-05-07 22:19 -27.81846 -50.25609 3951 ft 94 kts 329°
2026-05-07 22:20 -27.81287 -50.25991 3795 ft 97 kts 334°
2026-05-07 22:20 -27.80702 -50.26405 3663 ft 102 kts 332°
2026-05-07 22:20 -27.80078 -50.26839 3512 ft 106 kts 331°
2026-05-07 22:20 -27.79449 -50.27285 3358 ft 105 kts 331°
2026-05-07 22:21 -27.78841 -50.27719 3118 ft 101 kts 332°
2026-05-07 22:21 -27.78331 -50.28072 3059 ft 52 kts 328°
2026-05-07 22:21 -27.78214 -50.28156 3055 ft 6 kts 48°
2026-05-07 22:21 -27.78256 -50.28120 3057 ft 10 kts 144°
2026-05-07 22:22 -27.78250 -50.28047 3056 ft 13 kts 55°
2026-05-07 22:22 -27.78207 -50.28000 3055 ft 9 kts 356°
2026-05-07 22:22 -27.78189 -50.27984 3055 ft 0 kts 54°